Location: Proctor
(47.8934°N, 114.3048°W)
Time: 15:52:33
(UTC+00:00)

Courier 1B Rocket - Pass Details

Date: 18 June 2024
Orbit: 920 x 1201 km, 28.2° (Epoch: 16 July)

Event Time Altitude Azimuth Distance (km) Brightness Sun altitude
Rises 15:02:07 0° 243° (WSW) 3,964 7.7 31.0°
Reaches altitude 10° 15:06:32 10° 220° (SW) 3,055 7.3 31.7°
Maximum altitude 15:10:03 14° 192° (SSW) 2,803 7.4 32.3°
Drops below altitude 10° 15:13:37 10° 164° (SSE) 3,109 7.9 32.9°
Sets 15:18:11 0° 140° (SE) 4,088 8.8 33.6°
